Weather History for Millinocket, ME

Change the Weather History Date:

Saturday, January 18, 2014

  Actual Average Record
Temperature  
Mean Temperature 28 °F 13 °F  
Max Temperature 34 °F 23 °F 52 °F (2006)
Min Temperature 22 °F 3 °F -35 °F (1905)
Degree Days  
Heating Degree Days 37 52  
Month to date heating degree days 809 910  
Since 1 July heating degree days 3965 4075  
Cooling Degree Days 0 0  
Month to date cooling degree days 0 0  
Year to date cooling degree days 0 0  
Moisture  
Dew Point 24 °F    
Average Humidity 91    
Maximum Humidity 100    
Minimum Humidity 82    
Precipitation  
Precipitation 0.00 in 0.08 in 1.62 in (1994)
Month to date precipitation 3.14 1.86  
Year to date precipitation 3.14 1.86  
Sea Level Pressure  
Sea Level Pressure 29.80 in    
Wind  
Wind Speed 0 mph (WNW)    
Max Wind Speed 5 mph    
Max Gust Speed 5 mph    
Visibility 3 miles    
Events Fog    
T = Trace of Precipitation, MM = Missing Value Source: NWS Daily Summary

Daily Weather History Graph

Daily Weather History Graph

Search for Another Location

Airport:

Trip Planner

Search our weather history database for the weather conditions in past years. The results will help you decide how hot, cold, wet, or windy it might be!

Date:

Astronomy

Jan. 18, 2014 Rise Set
Actual Time 7:09 AM EST 4:21 PM EST
Civil Twilight 6:36 AM EST 4:54 PM EST
Nautical Twilight 6:00 AM EST 5:30 PM EST
Astronomical Twilight 5:24 AM EST 6:06 PM EST
Moon 7:10 PM EST (1/18) 7:58 AM EST (1/18)
Length of Visible Light 10h 17m
Length of Day
9h 11m
Waning Gibbous, 94% of the Moon is Illuminated
Jan 18
Waning Gibbous
Jan 24
Last Quarter
Jan 30
New
Feb 6
First Quarter
Feb 14
Full

Hourly Weather History & Observations

Time (EST) Temp. Windchill Dew Point Humidity Pressure Visibility Wind Dir Wind Speed Gust Speed Precip Events Conditions
12:44 AM 27.0 °F - 25.0 °F 92% 29.86 in 1.5 mi Calm Calm - N/A   Clear
12:47 AM 28.4 °F - 24.8 °F 86% 29.86 in 0.8 mi Calm Calm - N/A   Clear
12:53 AM 28.0 °F 24.2 °F 26.1 °F 92% 29.89 in 0.8 mi SSE 3.5 mph - N/A   Clear
12:56 AM 28.0 °F 24.2 °F 26.1 °F 92% 29.86 in 1.8 mi SSE 3.5 mph - N/A   Clear
12:58 AM 28.0 °F 24.2 °F 26.1 °F 92% 29.86 in 4.0 mi South 3.5 mph - N/A   Clear
1:53 AM 27.0 °F - 25.0 °F 92% 29.91 in 4.0 mi Calm Calm - N/A   Clear
2:53 AM 27.0 °F - 24.1 °F 89% 29.91 in 6.0 mi Calm Calm - N/A   Clear
3:53 AM 25.0 °F - 21.9 °F 88% 29.91 in 5.0 mi Calm Calm - N/A   Clear
4:53 AM 25.0 °F - 21.9 °F 88% 29.91 in 4.0 mi Calm Calm - N/A   Clear
5:53 AM 23.0 °F - 21.0 °F 92% 29.91 in 6.0 mi Calm Calm - N/A   Clear
6:24 AM 23.0 °F - 19.9 °F 88% 29.89 in 5.0 mi Calm Calm - N/A   Partly Cloudy
6:30 AM 23.0 °F - 19.9 °F 88% 29.89 in 1.8 mi Calm Calm - N/A   Scattered Clouds
6:32 AM 21.9 °F - 19.9 °F 92% 29.89 in 0.8 mi Calm Calm - N/A   Mist
6:43 AM 23.0 °F - 19.9 °F 88% 29.89 in 0.2 mi Calm Calm - N/A Fog Light Freezing Fog
6:53 AM 21.9 °F - 19.9 °F 92% 29.91 in 0.2 mi Calm Calm - N/A Fog Light Freezing Fog
7:03 AM 21.9 °F 17.2 °F 19.9 °F 92% 29.88 in 0.8 mi East 3.5 mph - N/A   Mist
7:19 AM 21.9 °F - 19.9 °F 92% 29.88 in 1.8 mi Calm Calm - N/A   Mostly Cloudy
7:28 AM 21.9 °F - 19.0 °F 89% 29.88 in 1.5 mi Calm Calm - N/A   Scattered Clouds
7:37 AM 21.9 °F - 19.0 °F 89% 29.88 in 3.0 mi Calm Calm - N/A   Scattered Clouds
7:44 AM 21.9 °F - 19.0 °F 89% 29.88 in 1.8 mi Calm Calm - N/A   Scattered Clouds
7:53 AM 21.9 °F - 19.9 °F 92% 29.91 in 1.5 mi Calm Calm - N/A   Scattered Clouds
8:01 AM 21.9 °F - 19.9 °F 92% 29.87 in 3.0 mi Calm Calm - N/A   Partly Cloudy
8:53 AM 24.1 °F - 21.0 °F 88% 29.91 in 5.0 mi Calm Calm - N/A   Clear
9:53 AM 26.1 °F - 24.1 °F 92% 29.90 in 5.0 mi Calm Calm - N/A   Clear
10:53 AM 28.0 °F - 26.1 °F 92% 29.87 in 6.0 mi Calm Calm - N/A   Clear
11:53 AM 28.9 °F - 28.0 °F 96% 29.83 in 6.0 mi Calm Calm - N/A   Clear
12:53 PM 30.9 °F - 28.0 °F 89% 29.79 in 7.0 mi Calm Calm - N/A   Clear
1:53 PM 32.0 °F - 28.0 °F 85% 29.79 in 9.0 mi Calm Calm - N/A   Partly Cloudy
2:53 PM 33.1 °F - 30.0 °F 89% 29.77 in 9.0 mi Calm Calm - N/A   Clear
3:53 PM 33.1 °F - 28.0 °F 82% 29.75 in 10.0 mi Calm Calm - N/A   Clear
4:53 PM 30.0 °F - 27.0 °F 88% 29.75 in 5.0 mi Calm Calm - N/A   Clear
5:05 PM 28.9 °F - 27.0 °F 92% 29.72 in 1.8 mi Calm Calm - N/A   Clear
5:11 PM 28.9 °F - 26.1 °F 89% 29.71 in 0.8 mi Calm Calm - N/A   Clear
5:19 PM 28.0 °F - 26.1 °F 92% 29.71 in 1.5 mi Calm Calm - N/A   Clear
5:26 PM 28.9 °F - 26.1 °F 89% 29.71 in 3.0 mi Calm Calm - N/A   Clear
5:53 PM 28.0 °F - 25.0 °F 88% 29.74 in 4.0 mi Calm Calm - N/A   Clear
6:08 PM 27.0 °F - 24.1 °F 89% 29.70 in 2.5 mi Calm Calm - N/A   Scattered Clouds
6:10 PM 27.0 °F - 24.1 °F 89% 29.70 in 1.0 mi Calm Calm - N/A   Mist
6:14 PM 27.0 °F - 24.1 °F 89% 29.70 in 0.5 mi Calm Calm - N/A Fog Light Freezing Fog
6:21 PM 28.0 °F - 25.0 °F 88% 29.71 in 0.2 mi Calm Calm - N/A Fog Light Freezing Fog
6:51 PM 24.8 °F - 21.2 °F 86% 29.70 in 0.2 mi Calm Calm - N/A Fog Light Freezing Fog
6:53 PM 25.0 °F - 21.9 °F 88% 29.74 in 0.2 mi Calm Calm - N/A Fog Light Freezing Fog
7:23 PM 26.1 °F - 23.0 °F 88% 29.69 in 1.0 mi Calm Calm - N/A   Overcast
7:26 PM 26.1 °F 21.9 °F 23.0 °F 88% 29.69 in 2.0 mi WNW 3.5 mph - N/A   Overcast
7:42 PM 26.1 °F - 24.1 °F 92% 29.69 in 3.0 mi Calm Calm - N/A   Overcast
7:53 PM 26.1 °F - 24.1 °F 92% 29.72 in 4.0 mi Calm Calm - N/A   Overcast
8:20 PM 26.1 °F 21.9 °F 24.1 °F 92% 29.68 in 4.0 mi NW 3.5 mph - N/A   Mostly Cloudy
8:50 PM 26.6 °F 22.6 °F 24.8 °F 93% 29.67 in 5.0 mi NW 3.5 mph - N/A   Overcast
8:53 PM 26.1 °F 21.9 °F 24.1 °F 92% 29.70 in 5.0 mi WNW 3.5 mph - N/A   Overcast
9:02 PM 26.1 °F 21.9 °F 24.1 °F 92% 29.67 in 5.0 mi WNW 3.5 mph - N/A   Mostly Cloudy
9:53 PM 25.0 °F - 23.0 °F 92% 29.69 in 6.0 mi Calm Calm - N/A   Scattered Clouds
10:53 PM 25.0 °F - 21.9 °F 88% 29.68 in 5.0 mi Calm Calm - N/A   Partly Cloudy
11:53 PM 24.1 °F 19.7 °F 21.0 °F 88% 29.67 in 3.0 mi WNW 3.5 mph - N/A   Partly Cloudy